Location: Hanover
(52.3667°N, 9.7167°E)
Time: 03:40:37
(UTC+02:00)

ARIANE 6 FM1 Upper Stage - Pass Details

Date: 29 September 2024
Orbit: 564 x 594 km, 62.0° (Epoch: 06 October)

Event Time Altitude Azimuth Distance (km) Brightness Sun altitude
Rises 20:56:20 0° 262° (W) 2,795 7.3 -18.0°
Reaches altitude 10° 20:58:45 10° 272° (W) 1,903 6.5 -18.4°
Maximum altitude 21:02:40 33° 337° (NNW) 999 4.3 -18.9°
Enters shadow 21:06:17 12° 41° (NE) 1,809 5.1 -19.4°
